Location: Crayja
(6.2254°N, 10.6273°W)
Time: 06:22:27
(UTC+00:00)

Cosmos 1842 Rocket - Pass Details

Date: 17 February 2020
Orbit: 604 x 635 km, 82.5° (Epoch: 07 April)

Event Time Altitude Azimuth Distance (km) Brightness Sun altitude
Rises 05:08:42 0° 181° (S) 2,882 7.1 -27.6°
Reaches altitude 10° 05:10:55 10° 179° (S) 1,981 6.3 -27.1°
Enters shadow 05:14:28 56° 159° (SSE) 740 4.0 -26.2°
Exits shadow 05:19:38 11° 9° (N) 1,963 6.1 -24.9°
Drops below altitude 10° 05:19:50 - 8° (N) 2,044 6.2 -24.9°
Sets 05:21:57 0° 7° (N) 2,905 7.0 -24.4°
